Estación de San Javier
Ultimos registro cada 15 minutos 30
| N° | Estación | Fecha / Hora | Temperatura | Humedad | Lluvia | Velocidad | Dirección | Radiación | Presion |
| 30 | San Javier | 08-05-2026 07:15 | 5,2 | 94 | 0 | 0 | 227 | 0 | 1022,8 |
| 29 | San Javier | 08-05-2026 07:00 | 5,2 | 94 | 0 | 0 | 130 | 0 | 1022,8 |
| 28 | San Javier | 08-05-2026 06:45 | 5,3 | 95 | 0 | 0 | 221 | 0 | 1022,9 |
| 27 | San Javier | 08-05-2026 06:30 | 5,2 | 94 | 0 | 0 | 231 | 0 | 1023 |
| 26 | San Javier | 08-05-2026 06:15 | 5,1 | 95 | 0 | 0 | 231 | 0 | 1023 |
| 25 | San Javier | 08-05-2026 06:00 | 4,9 | 95 | 0 | 0 | 219 | 0 | 1023,3 |
| 24 | San Javier | 08-05-2026 05:45 | 4,8 | 95 | 0 | 0 | 221 | 0 | 1023,4 |
| 23 | San Javier | 08-05-2026 05:30 | 4,7 | 94 | 0 | 0 | 229 | 0 | 1023,4 |
| 22 | San Javier | 08-05-2026 05:15 | 4,4 | 95 | 0 | 0 | 229 | 0 | 1023,6 |
| 21 | San Javier | 08-05-2026 05:00 | 4,3 | 94 | 0 | 0 | 229 | 0 | 1023,3 |
| 20 | San Javier | 08-05-2026 04:45 | 4,1 | 94 | 0 | 0 | 229 | 0 | 1023,4 |
| 19 | San Javier | 08-05-2026 04:30 | 4,1 | 95 | 0 | 0 | 229 | 0 | 1023,6 |
| 18 | San Javier | 08-05-2026 04:15 | 3,7 | 95 | 0 | 0 | 217 | 0 | 1023,4 |
| 17 | San Javier | 08-05-2026 04:00 | 2,8 | 93 | 0 | 0 | 23 | 0 | 1023,7 |
| 16 | San Javier | 08-05-2026 03:45 | 2,9 | 93 | 0 | 0 | 23 | 0 | 1023,6 |
| 15 | San Javier | 08-05-2026 03:30 | 3,1 | 93 | 0 | 0 | 23 | 0 | 1023,4 |
| 14 | San Javier | 08-05-2026 03:15 | 3,2 | 92 | 0 | 0 | 23 | 0 | 1023,7 |
| 13 | San Javier | 08-05-2026 03:00 | 3,4 | 93 | 0 | 0 | 23 | 0 | 1024,1 |
| 12 | San Javier | 08-05-2026 02:45 | 3,6 | 92 | 0 | 0 | 23 | 0 | 1024,6 |
| 11 | San Javier | 08-05-2026 02:30 | 3,7 | 92 | 0 | 0 | 23 | 0 | 1024,8 |
| 10 | San Javier | 08-05-2026 02:15 | 3,9 | 92 | 0 | 0 | 23 | 0 | 1024,8 |
| 9 | San Javier | 08-05-2026 02:00 | 3,9 | 92 | 0 | 0 | 23 | 0 | 1024,9 |
| 8 | San Javier | 08-05-2026 01:45 | 4 | 91 | 0 | 0 | 23 | 0 | 1025 |
| 7 | San Javier | 08-05-2026 01:30 | 4,3 | 90 | 0 | 0 | 23 | 0 | 1024,8 |
| 6 | San Javier | 08-05-2026 01:15 | 4,8 | 91 | 0 | 0 | 23 | 0 | 1025 |
| 5 | San Javier | 08-05-2026 01:00 | 4,9 | 90 | 0 | 0 | 23 | 0 | 1025,1 |
| 4 | San Javier | 08-05-2026 00:45 | 5,3 | 89 | 0 | 0 | 23 | 0 | 1025,3 |
| 3 | San Javier | 08-05-2026 00:30 | 5,6 | 89 | 0 | 0 | 23 | 0 | 1025,7 |
| 2 | San Javier | 08-05-2026 00:15 | 5,9 | 88 | 0 | 0 | 23 | 0 | 1025,5 |
| 1 | San Javier | 08-05-2026 00:00 | 6,4 | 88 | 0 | 0 | 23 | 0 | 1025,8 |